Regional Weather Roundup
Issued by NWS

Home | Current Version | Previous Version | Graphics & Text | Print | Product List | Glossary On
Versions: 1 2 3 4 5 6 7 8 9 10 11 12 13 14 15 16 17 18 19 20 21 22 23 24 25 26 27 28 29 30 31 32 33 34 35 36 37 38 39 40 41 42 43 44 45 46 47 48 49 50
000
ASUS43 KMKX 300300
RWRWI

WISCONSIN REGIONAL WEATHER ROUNDUP
NATIONAL WEATHER SERVICE MILWAUKEE/SULLIVAN WI
1000 PM CDT MON SEP 29 2014

NOTE: "FAIR" INDICATES FEW OR NO CLOUDS BELOW 12,000 FEET WITH NO
SIGNIFICANT WEATHER AND/OR OBSTRUCTIONS TO VISIBILITY.

WIZ001-002-006>008-014>016-023>028-300400-
NORTHWEST WISCONSIN

CITY           SKY/WX    TMP DP  RH WIND       PRES   REMARKS
SUPERIOR ARPT  CLOUDY    46  39  78 E8G20     30.20F
ASHLAND        CLOUDY    44  39  82 E9        30.21S
HAYWARD        CLOUDY    42  39  89 NE7G21    30.18R
SIREN          CLOUDY    44  38  81 E9        30.16S
CUMBERLAND     CLOUDY    43  37  81 E6        30.15S
RICE LAKE      PTCLDY    42  38  83 NE9       30.16S
CHETEK         MOCLDY    43  39  85 NE6       30.15S
LADYSMITH      CLOUDY    43  38  83 NE13      30.16F
EAU CLAIRE     NOT AVBL
MENOMONIE      CLEAR     47  39  74 NE7       30.13S
NEW RICHMOND   CLEAR     44  40  85 NE5       30.13F
OSCEOLA        CLEAR     44  43  97 NE3       30.16S
$$

WIZ003>005-009-010-017-018-300400-
NORTH CENTRAL WISCONSIN

CITY           SKY/WX    TMP DP  RH WIND       PRES   REMARKS
MANITOWISH WTR CLOUDY    37  37 100 N9        30.16S WCI  31
ARBOR VITAE    CLOUDY    39  37  92 NE9       30.15S WCI  33
WOODRUFF       CLOUDY    39  37  92 NE9       30.15S WCI  33
RHINELANDER    CLOUDY    38  36  92 NE6       30.16R WCI  33
EAGLE RIVER    LGT SNOW  37  37 100 NE8       30.15R WCI  31
LAND O LAKES   DRIZZLE   37  37  99 N9G18     30.16S WCI  31
PHILLIPS       CLOUDY    39  37  91 NE8       30.15S WCI  34
TOMAHAWK       CLOUDY    39  36  87 N6        30.16R WCI  35
MEDFORD        CLOUDY    40  37  89 NE9       30.13R WCI  34
MERRILL        CLOUDY    41  37  86 NE6       30.13R
$$

WIZ029-030-035-036-043>047-300400-
CENTRAL WISCONSIN

CITY           SKY/WX    TMP DP  RH WIND       PRES   REMARKS
WAUSAU         CLOUDY    43  37  79 N10       30.11S
MOSINEE        NOT AVBL
MARSHFIELD     CLEAR     44  39  82 NE9       30.10S
STEVENS POINT  CLOUDY    45  39  80 N9        30.11S
WAUPACA        CLOUDY    50  42  73 NE10      30.10S
WAUTOMA        NOT AVBL
WISC RAPIDS    MOCLDY    48  41  76 NE7       30.11S
CAMP DOUGLAS   MOCLDY    45  45 100 NE3       30.09S
$$

WIZ011>013-019>022-031-037>040-048>050-300400-
NORTHEAST WISCONSIN

CITY           SKY/WX    TMP DP  RH WIND       PRES   REMARKS
ANTIGO         CLOUDY    40  37  89 N13       30.12S WCI  32
SHAWANO        CLOUDY    47  40  75 N12       30.12S
OCONTO         CLOUDY    44  39  83 NE9       30.11S
STURGEON BAY   NOT AVBL
GREEN BAY      MOCLDY    46  40  79 N10       30.10R
MANITOWOC      NOT AVBL
APPLETON       CLOUDY    46  39  76 N12G18    30.09S
CLINTONVILLE   CLOUDY    45  37  76 N9        30.11S
OSHKOSH        CLOUDY    49  42  77 N13       30.08S
$$

WIZ032>034-041-042-053>061-300400-
SOUTHWEST WISCONSIN

CITY           SKY/WX    TMP DP  RH WIND       PRES   REMARKS
LA CROSSE      CLEAR     54  48  80 N8        30.08R
SPARTA         CLEAR     44  44  99 NE5       30.10S
VIROQUA        CLEAR     50  48  92 NE3       30.07S
BOSCOBEL       PTCLDY    55  48  77 NE8       30.06S
PRAIRIE DU CHI CLOUDY    56  48  75 NE7       30.05S
PLATTEVILLE    CLOUDY    55  52  90 NE12G18   30.05R
$$

WIZ056-057-062-063-064-067-068-300400-
SOUTH CENTRAL WISCONSIN

CITY           SKY/WX    TMP DP  RH WIND       PRES   REMARKS
REEDSBURG      CLOUDY    51  48  88 N7        30.07S
BARABOO/DELLS  CLOUDY    51  48  90 NE7       30.07S
LONE ROCK      NOT AVBL
MINERAL POINT  CLOUDY    54  50  87 NE9       30.05S
MADISON        NOT AVBL
MIDDLETON      CLOUDY    53  50  90 NE15      30.06S
WATERTOWN      CLOUDY    50  50 100 NE7       30.06S FOG
MONROE         CLOUDY    52  50  93 NE14      30.03S
JANESVILLE     CLOUDY    54  46  76 NE12      30.03S
$$

WIZ051-052-058>065-066-070>072-300400-
SOUTHEAST WISCONSIN

CITY           SKY/WX    TMP DP  RH WIND       PRES   REMARKS
MILWAUKEE      CLOUDY    51  46  83 N15G22    30.05S
WAUKESHA       CLOUDY    46  46 100 N7        30.06S
MILWAUKEE/TIMM CLOUDY    48  45  87 N10       30.06S
RACINE         CLOUDY    53  48  83 N16G29    30.05S
BURLINGTON     CLOUDY    49  46  90 NE12G17   30.05R
KENOSHA        CLOUDY    52  50  93 N7G17     30.04R
FOND DU LAC    CLOUDY    50  44  80 N17       30.08S
SHEBOYGAN      NOT AVBL
WEST BEND      CLOUDY    48  43  81 N8        30.06S
JUNEAU         DRIZZLE   49  48  96 N6        30.07S
$$

LSZ147-162-300400-
LAKE SUPERIOR

STATION/POSITION TIME  TEMP    WIND        PRES    WAVE
                       AIR SEA DIR/SP/G            HT/PER
                 (UTC) (F)     (DEG/KT/KT) (MB)    (FT/S)
W MID LAKE BUOY  0150   45 49   50/ 12/ 16 1023.7R   5/ 7
DEVILS ISLAND    0200   46      60/ 15/ 18 1023.8S
SAXON HARBOR     0200   45      70/  8/ 11 1022.7S
$$

LMZ867-665-643>646-300400-
LAKE MICHIGAN

STATION/POSITION TIME  TEMP    WIND        PRES    WAVE
                       AIR SEA DIR/SP/G            HT/PER
                 (UTC) (F)     (DEG/KT/KT) (MB)    (FT/S)
CHAMBERS ISLAND  0200   47     330/ 20/ 26 1019.3S
S GREEN BAY BUOY 0200   48                 1020.3R
N MID LAKE BUOY  0150   47 58  360/ 25/ 29 1017.3F   5/ 6
NORTHPORT PIER   0200   48     360/ 22/ 29 1019.0S
KEWAUNEE LAKESHO 0200   47     360/ 11/ 16 1017.8R
SHEBOYGAN LAKESH 0200   50 55   10/ 22/ 26 1018.4R
PORT WASHINGTON  0200           30/  7/ 11 1018.6R
ATWATER BUOY     0200   54      20/ 19/ 25 1018.3R
MILWAUKEE LAKESH 0200          360/ 14/ 20   N/A
S MID LAKE BUOY  0150   56 63  350/ 25/ 29 1015.4R   8/ 7
KENOSHA   LAKESH 0200          360/ 20/ 27 1016.6R
$$

TC  - TEMPERATURE IN CELSIUS
VSB - VISIBILITY IN STATUTE MILES
WCI - WIND CHILL INDEX
HX  - HEAT INDEX



USA.gov is the U.S. government's official web portal to all federal, state and local government web resources and services.